map of TGD home
Great Circle Mapper logo
TGD - Airport
Location
City:  Podgorica, Montenegro
Near (Alt.):Titograd
ICAO / IATA:LYPG / TGD

Details
Type:Airport (Aerodrome, Airfield)
Use:Public/Civil
Latitude:4221'34"N (42.359392)
Longitude:1915'07"E (19.251894)
Datum:WGS 1984
Elevation:141 ft (43 m)
Variation:4.05E (WMM2015 magnetic declination)
0.10 annual change
Runways:2
Longest:8202 × 148 ft (2500 × 45 m), paved

Time
Time Zone:UTC+1 (DST+2)
Local Time:

Weather
METAR:LYPG 120030Z VRB01KT 9999 FEW040 SCT080 03/03 Q1013 NOSIG
TAF:LYPG 112300Z 1200/1224 VRB02KT 7000 FEW033 BKN080 TX11/1212Z TN03/1206Z
TEMPO 1201/1208 3000 BR PROB40
TEMPO 1203/1207 0600 FG
TEMPO 1212/1224 3000 -RA BR

Related Locations
Nearby:
Farthest:CHT: 11641 mi / 18734 km
Waitangi [Tuuta], Chatham Islands, NZ

Find:

   beyond  
but within

Other Information
Maps:
NOTAMs:
Links:
Sources:

  
flag of Montenegro
flag of Podgorica
  

Sectional Chart

Flight Planning
at skyvector.com

Satellite Image

Google Maps Satellite view

 

Copyright © 2004-2016 Karl L. Swartz. All rights reserved.
The Great Circle Mapper name and logo are trademarks of the Great Circle Mapper.
All other trademarks mentioned herein belong to their respective owners.
Please see credits for attibutions and further copyright information.

  Follow gcmap on Facebook Follow gcmap on Twitter Follow gcmap on Google+ GCmap on LinkedIn

hCard Microformat

Geo Microformat